• en Suisse
  • Liste des pays
  • À 7 jours
  • Température de l'eau
  • Carte satellitaire
  • Carte météo
  • Widgets météo
  • user-avatar
    Se connecter

    Météo par heure à Serhiivs'ke

    Ce jour, 19 Avril, Jeudi

    Heure Température Précipitation Vent Pression Humidité
    00:00 +14°C° 0 mm 4 m/s 754 mmHg 62%
    01:00 +13°C° 0 mm 4 m/s 754 mmHg 63%
    02:00 +13°C° 0 mm 4 m/s 754 mmHg 64%
    03:00 +12°C° 0 mm 4 m/s 753 mmHg 65%
    04:00 +12°C° 0 mm 5 m/s 753 mmHg 66%
    05:00 +10°C° 0 mm 5 m/s 753 mmHg 67%
    06:00 +11°C° 0 mm 6 m/s 753 mmHg 66%
    07:00 +12°C° 0 mm 7 m/s 752 mmHg 65%
    08:00 +12°C° 0 mm 9 m/s 751 mmHg 64%
    09:00 +12°C° 0 mm 9 m/s 751 mmHg 65%
    10:00 +12°C° 0 mm 9 m/s 751 mmHg 66%
    11:00 +12°C° 0 mm 9 m/s 751 mmHg 67%
    12:00 +12°C° 0,1 mm 9 m/s 750 mmHg 65%
    13:00 +13°C° 0,1 mm 9 m/s 750 mmHg 62%
    14:00 +13°C° 0,1 mm 10 m/s 750 mmHg 59%
    15:00 +13°C° 0 mm 9 m/s 749 mmHg 60%
    16:00 +12°C° 0 mm 9 m/s 749 mmHg 62%
    17:00 +12°C° 0 mm 9 m/s 749 mmHg 63%
    18:00 +11°C° 0 mm 8 m/s 749 mmHg 64%
    19:00 +10°C° 0 mm 8 m/s 749 mmHg 66%
    20:00 +9°C° 0 mm 7 m/s 749 mmHg 67%
    21:00 +9°C° 0 mm 6 m/s 749 mmHg 69%
    22:00 +8°C° 0 mm 6 m/s 749 mmHg 71%
    23:00 +8°C° 0 mm 6 m/s 749 mmHg 72%

    Demain, 20 Avril, Vendredi

    Heure Température Précipitation Vent Pression Humidité
    00:00 +8°C° 0 mm 6 m/s 749 mmHg 74%
    01:00 +8°C° 0 mm 6 m/s 749 mmHg 75%
    02:00 +8°C° 0 mm 6 m/s 749 mmHg 76%
    03:00 +7°C° 0 mm 6 m/s 749 mmHg 78%
    04:00 +7°C° 0 mm 6 m/s 749 mmHg 80%
    05:00 +7°C° 0 mm 6 m/s 750 mmHg 81%
    06:00 +8°C° 0 mm 7 m/s 750 mmHg 78%
    07:00 +7°C° 0 mm 8 m/s 750 mmHg 75%
    08:00 +9°C° 0 mm 8 m/s 751 mmHg 72%
    09:00 +10°C° 0 mm 8 m/s 751 mmHg 66%
    10:00 +11°C° 0 mm 9 m/s 751 mmHg 60%
    11:00 +13°C° 0 mm 9 m/s 751 mmHg 55%
    12:00 +13°C° 0 mm 9 m/s 752 mmHg 51%
    13:00 +15°C° 0 mm 9 m/s 752 mmHg 48%
    14:00 +16°C° 0 mm 9 m/s 752 mmHg 44%
    15:00 +16°C° 0 mm 8 m/s 752 mmHg 46%
    16:00 +16°C° 0 mm 8 m/s 752 mmHg 47%
    17:00 +15°C° 0 mm 7 m/s 752 mmHg 48%
    18:00 +14°C° 0 mm 6 m/s 752 mmHg 52%
    19:00 +13°C° 0 mm 5 m/s 753 mmHg 56%
    20:00 +12°C° 0 mm 4 m/s 753 mmHg 60%
    21:00 +11°C° 0 mm 3 m/s 754 mmHg 63%
    22:00 +11°C° 0 mm 3 m/s 754 mmHg 66%
    23:00 +10°C° 0 mm 3 m/s 754 mmHg 69%

    Après-demain, 21 Avril, Samedi

    Heure Température Précipitation Vent Pression Humidité
    00:00 +9°C° 0 mm 3 m/s 754 mmHg 72%
    01:00 +9°C° 0 mm 3 m/s 754 mmHg 74%
    02:00 +9°C° 0 mm 2 m/s 754 mmHg 77%
    03:00 +8°C° 0 mm 2 m/s 754 mmHg 79%
    04:00 +8°C° 0 mm 2 m/s 754 mmHg 81%
    05:00 +8°C° 0 mm 2 m/s 754 mmHg 83%
    06:00 +9°C° 0 mm 2 m/s 754 mmHg 77%
    07:00 +12°C° 0 mm 2 m/s 754 mmHg 70%
    08:00 +14°C° 0 mm 2 m/s 754 mmHg 63%
    09:00 +14°C° 0 mm 3 m/s 754 mmHg 57%
    10:00 +16°C° 0 mm 3 m/s 754 mmHg 51%
    11:00 +18°C° 0 mm 3 m/s 753 mmHg 44%
    12:00 +19°C° 0 mm 4 m/s 753 mmHg 42%
    13:00 +20°C° 0 mm 4 m/s 752 mmHg 41%
    14:00 +20°C° 0 mm 5 m/s 751 mmHg 39%
    15:00 +20°C° 0 mm 5 m/s 750 mmHg 40%
    16:00 +20°C° 0 mm 5 m/s 750 mmHg 42%
    17:00 +20°C° 0 mm 6 m/s 749 mmHg 43%
    18:00 +19°C° 0 mm 5 m/s 749 mmHg 48%
    19:00 +16°C° 0 mm 5 m/s 749 mmHg 53%
    20:00 +15°C° 0 mm 4 m/s 748 mmHg 58%
    21:00 +15°C° 0 mm 5 m/s 748 mmHg 57%
    22:00 +15°C° 0 mm 5 m/s 747 mmHg 56%
    23:00 +15°C° 0 mm 6 m/s 747 mmHg 55%

    22 Avril, Dimanche

    Heure Température Précipitation Vent Pression Humidité
    00:00 +14°C° 0 mm 6 m/s 747 mmHg 61%
    01:00 +14°C° 0 mm 5 m/s 747 mmHg 66%
    02:00 +14°C° 0 mm 5 m/s 747 mmHg 71%
    03:00 +13°C° 0 mm 5 m/s 747 mmHg 73%
    04:00 +12°C° 0 mm 5 m/s 747 mmHg 75%
    05:00 +10°C° 0 mm 5 m/s 747 mmHg 77%
    06:00 +12°C° 0 mm 5 m/s 748 mmHg 68%
    07:00 +13°C° 0 mm 6 m/s 748 mmHg 60%
    08:00 +14°C° 0 mm 7 m/s 749 mmHg 52%
    09:00 +15°C° 0 mm 7 m/s 749 mmHg 46%
    10:00 +16°C° 0 mm 7 m/s 749 mmHg 41%
    11:00 +17°C° 0 mm 7 m/s 749 mmHg 35%
    12:00 +17°C° 0 mm 7 m/s 749 mmHg 34%
    13:00 +17°C° 0 mm 7 m/s 749 mmHg 34%
    14:00 +18°C° 0 mm 7 m/s 749 mmHg 33%
    15:00 +17°C° 0 mm 6 m/s 749 mmHg 34%
    16:00 +17°C° 0 mm 6 m/s 749 mmHg 36%
    17:00 +17°C° 0 mm 6 m/s 749 mmHg 37%
    18:00 +15°C° 0 mm 5 m/s 749 mmHg 42%
    19:00 +14°C° 0 mm 3 m/s 750 mmHg 47%
    20:00 +14°C° 0 mm 2 m/s 750 mmHg 52%
    21:00 +14°C° 0 mm 2 m/s 750 mmHg 53%
    22:00 +13°C° 0 mm 1 m/s 750 mmHg 54%
    23:00 +13°C° 0 mm 1 m/s 750 mmHg 55%

    23 Avril, Lundi

    Heure Température Précipitation Vent Pression Humidité
    00:00 +13°C° 0 mm 1 m/s 750 mmHg 55%
    01:00 +13°C° 0 mm 1 m/s 750 mmHg 56%
    02:00 +13°C° 0 mm 2 m/s 750 mmHg 56%
    03:00 +12°C° 0 mm 2 m/s 750 mmHg 58%
    04:00 +12°C° 0 mm 2 m/s 750 mmHg 61%
    05:00 +12°C° 0 mm 2 m/s 750 mmHg 63%
    06:00 +12°C° 0 mm 3 m/s 750 mmHg 60%
    07:00 +13°C° 0 mm 3 m/s 750 mmHg 58%
    08:00 +16°C° 0 mm 3 m/s 750 mmHg 55%
    09:00 +17°C° 0 mm 3 m/s 750 mmHg 50%
    10:00 +18°C° 0 mm 3 m/s 750 mmHg 45%
    11:00 +19°C° 0 mm 4 m/s 750 mmHg 41%
    12:00 +19°C° 0 mm 3 m/s 750 mmHg 39%
    13:00 +19°C° 0 mm 3 m/s 749 mmHg 38%
    14:00 +20°C° 0 mm 3 m/s 749 mmHg 37%
    15:00 +20°C° 0 mm 3 m/s 749 mmHg 37%
    16:00 +20°C° 0 mm 2 m/s 749 mmHg 37%
    17:00 +20°C° 0 mm 2 m/s 749 mmHg 37%
    18:00 +18°C° 0 mm 2 m/s 749 mmHg 42%
    19:00 +18°C° 0 mm 1 m/s 749 mmHg 46%
    20:00 +15°C° 0 mm 1 m/s 749 mmHg 50%
    21:00 +15°C° 0 mm 2 m/s 749 mmHg 53%
    22:00 +14°C° 0 mm 2 m/s 749 mmHg 56%
    23:00 +12°C° 0 mm 3 m/s 749 mmHg 60%

    24 Avril, Mardi

    Heure Température Précipitation Vent Pression Humidité
    00:00 +12°C° 0 mm 3 m/s 748 mmHg 65%
    01:00 +11°C° 0 mm 3 m/s 748 mmHg 70%
    02:00 +11°C° 0 mm 3 m/s 748 mmHg 76%
    03:00 +11°C° 0 mm 3 m/s 747 mmHg 80%
    04:00 +11°C° 0 mm 3 m/s 747 mmHg 85%
    05:00 +10°C° 0 mm 3 m/s 747 mmHg 89%
    06:00 +12°C° 0 mm 4 m/s 747 mmHg 83%
    07:00 +14°C° 0 mm 5 m/s 747 mmHg 78%
    08:00 +16°C° 0 mm 6 m/s 747 mmHg 72%
    09:00 +17°C° 0 mm 6 m/s 746 mmHg 68%
    10:00 +20°C° 0 mm 7 m/s 746 mmHg 64%
    11:00 +22°C° 0 mm 7 m/s 746 mmHg 60%
    12:00 +22°C° 0,5 mm 7 m/s 745 mmHg 57%
    13:00 +23°C° 0,5 mm 7 m/s 745 mmHg 55%
    14:00 +24°C° 0,5 mm 7 m/s 745 mmHg 53%
    15:00 +22°C° 1,3 mm 7 m/s 745 mmHg 59%
    16:00 +21°C° 1,3 mm 7 m/s 745 mmHg 66%
    17:00 +18°C° 1,3 mm 7 m/s 745 mmHg 73%
    18:00 +17°C° 1,4 mm 6 m/s 745 mmHg 77%
    19:00 +15°C° 1,4 mm 5 m/s 746 mmHg 81%
    20:00 +14°C° 1,4 mm 4 m/s 746 mmHg 85%
    21:00 +13°C° 0 mm 4 m/s 746 mmHg 86%
    22:00 +12°C° 0 mm 3 m/s 746 mmHg 88%
    23:00 +12°C° 0 mm 2 m/s 747 mmHg 89%
    Voir plus